WO5CID Weather Reports


time (UTC)temp
C
wind
direction
speed
KPH
gust
KPH
rain 1hr
cm
rain 24hr
cm
rain mn
cm
humidity
%
barometer
mb
20260505051811 14 187 0.0 0.0 0.00 0.00 0.00 90 1016.1
20260505051309 14 187 0.0 0.0 0.00 0.00 0.00 90 1016.2
20260505050807 14 187 0.0 0.0 0.00 0.00 0.00 90 1016.5
20260505050305 14 187 0.0 0.0 0.00 0.00 0.00 90 1016.5
20260505041735 15 187 0.0 0.0 0.00 0.00 0.00 89 1017.0
20260505041232 15 187 0.0 0.0 0.00 0.00 0.00 89 1016.8
20260505040729 15 187 0.0 0.0 0.00 0.00 0.00 87 1016.7
20260505040227 15 187 0.0 0.0 0.00 0.00 0.00 86 1016.6
20260505035723 15 187 0.0 0.0 0.00 0.00 0.00 86 1016.6
20260505035219 15 187 0.0 0.0 0.00 0.00 0.00 86 1016.7
20260505034716 15 187 0.0 0.0 0.00 0.00 0.00 83 1016.6
20260505034213 16 187 0.0 0.0 0.00 0.00 0.00 82 1016.6
20260505033709 16 187 0.0 0.0 0.00 0.00 0.00 82 1016.6
20260505033208 16 187 0.0 0.0 0.00 0.00 0.00 81 1016.6
20260505032705 16 187 0.0 0.0 0.00 0.00 0.00 81 1016.5
20260505032201 16 187 0.0 0.0 0.00 0.00 0.00 80 1016.5
20260505031659 16 187 0.0 0.0 0.00 0.00 0.00 81 1016.8
20260505031155 16 187 0.0 0.0 0.00 0.00 0.00 81 1016.9
20260505030652 16 187 0.0 0.0 0.00 0.00 0.00 80 1016.8
20260505030147 16 187 0.0 0.0 0.00 0.00 0.00 79 1016.8
20260505025644 16 187 0.0 0.0 0.00 0.00 0.00 78 1016.6
20260505025142 17 187 0.0 0.0 0.00 0.00 0.00 78 1016.6
20260505024639 17 187 0.0 0.0 0.00 0.00 0.00 77 1016.7
20260505024136 17 187 0.0 0.0 0.00 0.00 0.00 76 1016.8
20260505023634 17 187 0.0 0.0 0.00 0.00 0.00 76 1016.6
20260505023131 17 187 0.0 0.0 0.00 0.00 0.00 76 1016.6
20260505022629 17 187 0.0 0.0 0.00 0.00 0.00 74 1016.8
20260505022126 17 187 0.0 0.0 0.00 0.00 0.00 74 1016.7
20260505021622 17 187 1.6 1.6 0.00 0.00 0.00 73 1016.6
20260505021119 17 187 0.0 0.0 0.00 0.00 0.00 72 1016.6
20260505020614 17 176 0.0 0.0 0.00 0.00 0.00 72 1016.7
20260505020111 17 176 0.0 0.0 0.00 0.00 0.00 72 1016.6
20260505015608 18 176 0.0 0.0 0.00 0.00 0.00 71 1016.8
20260505015105 18 176 0.0 0.0 0.00 0.00 0.00 70 1016.4
20260505014601 18 176 0.0 0.0 0.00 0.00 0.00 70 1016.7
20260505014058 18 176 0.0 0.0 0.00 0.00 0.00 70 1016.6
20260505013556 18 196 0.0 0.0 0.00 0.00 0.00 69 1016.6
20260505013053 18 192 0.0 0.0 0.00 0.00 0.00 70 1016.4
20260505012551 18 192 0.0 0.0 0.00 0.00 0.00 68 1016.3
20260505012048 18 205 0.0 1.6 0.00 0.00 0.00 68 1016.4
20260505011543 18 158 0.0 0.0 0.00 0.00 0.00 68 1016.3
20260505011041 19 158 0.0 0.0 0.00 0.00 0.00 67 1016.3
20260505010536 19 158 0.0 0.0 0.00 0.00 0.00 67 1016.3
20260505010033 19 180 0.0 0.0 0.00 0.00 0.00 66 1016.0
20260505005529 19 180 0.0 0.0 0.00 0.00 0.00 66 1016.1
20260505005027 20 170 0.0 0.0 0.00 0.00 0.00 65 1016.0
20260505004524 20 170 0.0 0.0 0.00 0.00 0.00 65 1016.0
20260505004020 20 169 0.0 0.0 0.00 0.00 0.00 64 1016.1
20260505003517 20 176 0.0 0.0 0.00 0.00 0.00 63 1015.9
20260505003015 20 171 1.6 1.6 0.00 0.00 0.00 62 1016.0
20260505002510 20 153 1.6 1.6 0.00 0.00 0.00 62 1016.0
20260505002009 21 156 0.0 0.0 0.00 0.00 0.00 60 1015.9
20260505001506 21 38 3.2 3.2 0.00 0.00 0.00 59 1016.1
20260505001003 21 236 1.6 1.6 0.00 0.00 0.00 58 1015.9
20260505000500 21 152 1.6 1.6 0.00 0.00 0.00 59 1015.8
20260504235957 22 171 1.6 1.6 0.00 0.00 0.00 57 1015.7
20260504235454 22 172 1.6 1.6 0.00 0.00 0.00 57 1015.6
20260504234951 22 133 1.6 3.2 0.00 0.00 0.00 56 1015.1
20260504234448 22 67 8.0 9.7 0.00 0.00 0.00 56 1015.2
20260504233944 22 165 0.0 0.0 0.00 0.00 0.00 55 1015.4
20260504233440 22 35 3.2 3.2 0.00 0.00 0.00 54 1015.3
20260504232937 23 176 0.0 0.0 0.00 0.00 0.00 55 1015.1
20260504232434 23 222 1.6 1.6 0.00 0.00 0.00 53 1014.9
20260504231932 23 137 3.2 3.2 0.00 0.00 0.00 54 1015.0
20260504231427 23 132 3.2 3.2 0.00 0.00 0.00 54 1014.7
20260504230924 23 181 0.0 0.0 0.00 0.00 0.00 53 1014.9
20260504230421 23 226 1.6 1.6 0.00 0.00 0.00 51 1014.8
20260504225920 24 178 0.0 0.0 0.00 0.00 0.00 52 1014.8
20260504225417 24 126 3.2 3.2 0.00 0.00 0.00 50 1015.0
20260504224914 25 130 1.6 1.6 0.00 0.00 0.00 50 1014.7
20260504224410 25 197 0.0 0.0 0.00 0.00 0.00 49 1014.9
20260504223908 25 184 1.6 1.6 0.00 0.00 0.00 48 1014.9
20260504223403 25 200 1.6 1.6 0.00 0.00 0.00 48 1015.1
20260504222859 25 226 3.2 4.8 0.00 0.00 0.00 47 1014.8
20260504222356 25 252 1.6 1.6 0.00 0.00 0.00 47 1015.0
20260504221855 26 206 1.6 3.2 0.00 0.00 0.00 46 1015.1
20260504221351 26 206 1.6 3.2 0.00 0.00 0.00 44 1015.3
20260504220848 26 11 1.6 3.2 0.00 0.00 0.00 45 1015.3
20260504220345 27 185 1.6 1.6 0.00 0.00 0.00 43 1015.1
20260504215842 26 247 1.6 1.6 0.00 0.00 0.00 43 1015.1
20260504215338 27 177 3.2 1.6 0.00 0.00 0.00 43 1015.1
20260504214834 26 262 1.6 1.6 0.00 0.00 0.00 43 1014.9
20260504214332 27 201 1.6 3.2 0.00 0.00 0.00 44 1015.1
20260504213828 26 253 1.6 1.6 0.00 0.00 0.00 44 1014.9
20260504213324 27 213 3.2 3.2 0.00 0.00 0.00 44 1014.9
20260504212822 27 150 6.4 8.0 0.00 0.00 0.00 40 1014.9
20260504212317 27 222 1.6 1.6 0.00 0.00 0.00 42 1014.8
20260504211816 27 248 3.2 3.2 0.00 0.00 0.00 40 1015.0
20260504211311 27 191 1.6 1.6 0.00 0.00 0.00 40 1014.8
20260504210809 27 314 1.6 3.2 0.00 0.00 0.00 40 1015.0
20260504210306 27 191 3.2 3.2 0.00 0.00 0.00 41 1015.0
20260504205803 27 220 1.6 3.2 0.00 0.00 0.00 41 1015.0
20260504205301 27 183 3.2 3.2 0.00 0.00 0.00 40 1015.3
20260504204759 28 165 11.3 11.3 0.00 0.00 0.00 38 1015.2
20260504204257 28 179 4.8 4.8 0.00 0.00 0.00 39 1015.1
20260504203756 28 166 1.6 1.6 0.00 0.00 0.00 38 1015.1
20260504203252 28 298 3.2 3.2 0.00 0.00 0.00 37 1015.1
20260504202747 28 233 8.0 11.3 0.00 0.00 0.00 38 1015.3
20260504202245 28 248 3.2 3.2 0.00 0.00 0.00 36 1015.5
20260504201742 28 212 1.6 1.6 0.00 0.00 0.00 37 1015.1
20260504201239 27 199 3.2 3.2 0.00 0.00 0.00 41 1015.6
20260504200737 26 263 1.6 1.6 0.00 0.00 0.00 42 1015.5
20260504200232 27 195 4.8 4.8 0.00 0.00 0.00 39 1015.4
20260504195729 28 192 1.6 3.2 0.00 0.00 0.00 38 1015.6
20260504195225 27 205 6.4 8.0 0.00 0.00 0.00 38 1015.3
20260504194722 27 155 3.2 3.2 0.00 0.00 0.00 39 1015.5
20260504194218 28 171 1.6 1.6 0.00 0.00 0.00 37 1015.8
20260504193715 27 231 1.6 1.6 0.00 0.00 0.00 39 1015.9
20260504193212 27 249 3.2 3.2 0.00 0.00 0.00 38 1015.8
20260504192711 27 193 1.6 1.6 0.00 0.00 0.00 37 1015.9
20260504192208 28 119 4.8 4.8 0.00 0.00 0.00 34 1015.8
20260504191707 28 105 3.2 3.2 0.00 0.00 0.00 38 1016.0
20260504191203 28 170 1.6 1.6 0.00 0.00 0.00 36 1015.9
20260504190658 28 186 3.2 3.2 0.00 0.00 0.00 34 1016.1
20260504190155 27 246 3.2 3.2 0.00 0.00 0.00 36 1016.0
20260504185652 27 163 0.0 0.0 0.00 0.00 0.00 37 1016.1
20260504185148 28 128 4.8 4.8 0.00 0.00 0.00 34 1016.2
20260504184644 27 202 8.0 12.9 0.00 0.00 0.00 35 1016.3
20260504184139 28 165 1.6 1.6 0.00 0.00 0.00 36 1016.3
20260504183637 28 97 1.6 3.2 0.00 0.00 0.00 38 1016.3
20260504183134 28 173 4.8 4.8 0.00 0.00 0.00 34 1016.5
20260504182632 28 243 1.6 1.6 0.00 0.00 0.00 36 1016.7
20260504182129 28 205 1.6 1.6 0.00 0.00 0.00 34 1016.4
20260504181626 28 239 1.6 1.6 0.00 0.00 0.00 33 1016.6
20260504181124 29 199 1.6 1.6 0.00 0.00 0.00 35 1016.7
20260504180623 28 179 1.6 1.6 0.00 0.00 0.00 35 1016.7
20260504180121 28 212 3.2 3.2 0.00 0.00 0.00 33 1016.8
20260504175618 28 246 1.6 1.6 0.00 0.00 0.00 33 1016.8
20260504175114 28 86 3.2 3.2 0.00 0.00 0.00 34 1016.5
20260504174613 28 62 4.8 4.8 0.00 0.00 0.00 34 1016.9
20260504174109 28 208 4.8 4.8 0.00 0.00 0.00 33 1016.6
20260504173606 28 162 6.4 9.7 0.00 0.00 0.00 33 1016.9
20260504173104 28 205 3.2 3.2 0.00 0.00 0.00 34 1016.9
20260504172600 28 98 3.2 3.2 0.00 0.00 0.00 36 1017.1
20260504172056 27 206 1.6 0.0 0.00 0.00 0.00 35 1017.1
20260504171553 28 262 3.2 3.2 0.00 0.00 0.00 31 1017.1
20260504171050 27 219 1.6 1.6 0.00 0.00 0.00 34 1017.2
20260504170546 27 215 3.2 3.2 0.00 0.00 0.00 34 1017.5
20260504150930 26 157 0.0 0.0 0.00 0.00 0.00 39 1018.2
20260504150427 26 205 1.6 1.6 0.00 0.00 0.00 35 1018.2
20260504140853 25 146 1.6 1.6 0.00 0.00 0.00 45 1018.1
20260504140349 25 153 3.2 3.2 0.00 0.00 0.00 47 1018.1
20260504130818 22 142 0.0 0.0 0.00 0.00 0.00 60 1018.2
20260504130314 22 113 0.0 0.0 0.00 0.00 0.00 62 1018.2
20260504120238 13 178 0.0 0.0 0.00 0.00 0.00 99 1017.8
20260504110705 11 178 0.0 0.0 0.00 0.00 0.00 99 1017.2
20260504110201 11 178 0.0 0.0 0.00 0.00 0.00 99 1017.2
20260504100125 11 178 0.0 0.0 0.00 0.00 0.00 98 1017.1
20260504081518 12 178 0.0 0.0 0.00 0.00 0.00 97 1017.2
20260504081014 12 178 0.0 0.0 0.00 0.00 0.00 97 1017.3
20260504080510 12 178 0.0 0.0 0.00 0.00 0.00 97 1017.0